Total_Precipitation_Accumulation
0.02 0.02 0.02 0.03 0.04 0.05 0.09 0.15 0.27 0.32 0.26 0.36 0.47 0.69 0.80 0.93 1.11 1.10 0.96 1.00 1.29 1.49 1.77 2.23 2.78 3.62 4.70 5.63 5.90 5.40 4.93 4.61 4.22 3.86 3.31 3.00 3.09 3.03 2.76 2.48 2.16 2.07 2.01 2.10
0.02 0.03 0.03 0.03 0.04 0.07 0.10 0.16 0.26 0.32 0.24 0.30 0.47 0.77 1.09 1.10 1.03 0.97 1.03 1.05 1.15 1.51 1.95 2.68 3.69 4.27 4.55 4.68 4.42 4.08 3.83 3.63 3.19 2.92 2.81 2.63 2.69 2.44 2.29 2.21 2.24 1.89 1.79 1.88
0.04 0.05 0.03 0.03 0.05 0.12 0.13 0.17 0.25 0.32 0.23 0.27 0.51 1.00 1.27 1.26 1.04 0.89 0.97 0.99 1.15 1.55 2.14 2.96 3.54 3.66 3.42 3.09 2.96 2.90 2.97 2.73 2.62 2.68 2.63 2.58 2.65 2.39 2.18 2.10 2.16 1.84 1.61 1.62
0.06 0.05 0.03 0.03 0.06 0.11 0.13 0.11 0.10 0.14 0.24 0.43 0.63 1.27 1.48 1.24 1.16 0.98 1.01 1.02 1.04 1.32 1.71 2.14 2.41 2.28 2.37 2.50 2.50 2.61 2.70 2.45 2.44 2.41 2.16 2.11 2.09 2.00 1.94 1.95 2.04 2.10 1.74 1.57
0.06 0.05 0.04 0.04 0.06 0.07 0.07 0.06 0.08 0.16 0.31 0.52 0.71 1.01 1.22 1.04 1.19 0.98 0.88 0.89 0.83 1.00 1.14 1.28 1.40 1.52 1.71 1.82 2.00 2.26 2.51 2.45 2.28 2.11 2.08 2.17 2.04 2.03 2.03 2.07 2.14 2.20 2.00 1.75
0.06 0.05 0.05 0.04 0.05 0.05 0.06 0.09 0.19 0.30 0.48 1.00 0.96 0.94 1.14 1.10 1.21 0.97 0.81 0.72 0.75 0.87 1.01 1.06 1.10 1.22 1.37 1.51 1.74 1.99 2.32 2.37 2.25 2.10 2.03 2.10 2.17 2.16 2.10 2.11 2.09 1.91 1.86 1.86
0.12 0.09 0.06 0.05 0.06 0.07 0.08 0.13 0.35 0.71 1.08 1.24 0.81 0.89 1.12 0.92 0.87 0.73 0.52 0.51 0.64 0.83 0.98 1.06 1.00 0.97 1.02 1.18 1.33 1.43 1.66 1.93 2.03 1.99 1.96 2.00 2.16 2.10 1.94 1.85 1.79 1.75 1.59 1.54
0.16 0.13 0.07 0.05 0.06 0.08 0.07 0.08 0.20 0.36 0.46 0.62 0.78 1.16 1.26 0.93 0.65 0.41 0.33 0.45 0.68 0.82 0.84 0.90 0.90 0.86 0.83 0.93 1.11 1.25 1.48 1.66 1.86 1.89 1.87 1.92 2.01 1.94 1.80 1.82 1.64 1.61 1.55 1.47
0.07 0.06 0.05 0.04 0.06 0.08 0.08 0.08 0.09 0.15 0.19 0.40 0.79 1.09 1.05 0.82 0.64 0.46 0.39 0.45 0.66 0.69 0.66 0.80 0.87 0.94 0.94 0.92 1.03 1.18 1.44 1.70 1.90 2.00 2.04 1.99 2.01 2.02 1.97 1.90 1.68 1.49 1.61 1.53
0.04 0.05 0.05 0.05 0.06 0.07 0.08 0.09 0.09 0.11 0.20 0.35 0.63 1.03 1.23 1.03 0.80 0.63 0.54 0.53 0.64 0.68 0.69 0.91 1.06 1.03 0.90 0.78 0.85 1.04 1.30 1.67 1.88 2.02 2.01 1.91 2.08 2.01 1.97 1.91 1.75 1.58 1.58 1.57
0.03 0.04 0.07 0.06 0.07 0.09 0.09 0.09 0.11 0.11 0.13 0.22 0.50 0.71 0.66 0.63 0.60 0.63 0.68 0.63 0.54 0.64 0.77 0.94 1.14 1.11 0.88 0.77 0.76 0.90 1.23 1.52 1.68 1.80 1.88 1.80 1.77 1.71 1.72 1.78 1.77 1.74 1.72 1.66
0.03 0.03 0.05 0.08 0.09 0.09 0.11 0.12 0.15 0.17 0.15 0.14 0.27 0.51 0.39 0.44 0.55 0.62 0.69 0.76 0.77 0.79 0.83 0.80 0.94 1.10 1.01 0.89 0.83 0.99 1.27 1.45 1.54 1.60 1.62 1.62 1.66 1.64 1.58 1.56 1.65 1.71 1.62 1.53
0.04 0.04 0.06 0.14 0.19 0.16 0.12 0.12 0.14 0.17 0.19 0.15 0.29 0.54 0.41 0.37 0.57 0.63 0.63 0.85 1.01 0.74 0.62 0.65 0.81 0.95 1.07 1.04 1.01 1.15 1.29 1.38 1.44 1.37 1.38 1.40 1.42 1.41 1.41 1.43 1.50 1.58 1.60 1.59
0.04 0.04 0.05 0.13 0.21 0.22 0.17 0.13 0.15 0.15 0.13 0.13 0.20 0.44 0.42 0.43 0.58 0.81 0.88 0.90 0.75 0.67 0.66 0.64 0.74 0.96 1.06 1.11 1.11 1.10 1.18 1.35 1.37 1.30 1.34 1.45 1.50 1.54 1.56 1.53 1.58 1.68 1.76 1.69
0.04 0.03 0.03 0.04 0.08 0.14 0.17 0.17 0.15 0.12 0.09 0.15 0.17 0.29 0.36 0.47 0.60 0.76 0.78 0.71 0.65 0.72 0.73 0.71 0.79 0.98 1.13 1.28 1.30 1.25 1.24 1.31 1.45 1.57 1.62 1.78 1.93 1.96 1.85 1.81 1.89 1.95 1.99 1.92
0.04 0.04 0.04 0.04 0.07 0.12 0.14 0.15 0.12 0.09 0.08 0.12 0.16 0.23 0.29 0.46 0.54 0.64 0.62 0.61 0.70 0.75 0.73 0.70 0.81 1.02 1.06 1.08 1.16 1.17 1.21 1.27 1.34 1.42 1.58 1.78 1.98 2.08 2.05 2.09 2.24 2.26 2.21 2.31
0.08 0.07 0.06 0.06 0.08 0.11 0.19 0.15 0.12 0.12 0.11 0.13 0.20 0.27 0.30 0.41 0.55 0.68 0.72 0.76 0.80 0.75 0.72 0.75 0.77 0.87 1.05 0.99 0.98 1.10 1.18 1.30 1.44 1.68 1.87 1.96 2.11 2.24 2.26 2.23 2.27 2.31 2.36 2.37
0.19 0.18 0.15 0.13 0.14 0.22 0.21 0.17 0.17 0.17 0.19 0.23 0.28 0.34 0.42 0.48 0.59 0.71 0.76 0.75 0.83 0.87 0.95 1.02 1.09 1.08 1.13 1.09 1.08 1.17 1.25 1.40 1.48 1.58 1.75 1.89 2.08 2.23 2.34 2.45 2.47 2.56 2.66 2.68
0.30 0.32 0.27 0.22 0.23 0.25 0.26 0.26 0.27 0.30 0.37 0.39 0.49 0.59 0.60 0.60 0.61 0.74 0.85 0.88 0.99 0.98 1.03 1.16 1.21 1.22 1.18 1.26 1.36 1.50 1.52 1.65 1.78 1.84 2.01 2.13 2.23 2.39 2.48 2.54 2.68 2.79 2.89 2.87
0.34 0.39 0.39 0.33 0.39 0.41 0.41 0.41 0.35 0.41 0.76 0.68 0.69 0.80 0.82 0.87 1.07 1.13 1.11 1.07 1.08 1.08 1.11 1.23 1.21 1.18 1.34 1.42 1.49 1.61 1.80 1.92 2.06 2.18 2.34 2.47 2.60 2.67 2.65 2.67 2.76 2.80 2.84 2.84
0.41 0.49 0.49 0.45 0.46 0.47 0.45 0.46 0.48 0.83 1.21 1.17 1.13 1.14 1.08 1.19 1.24 1.12 1.03 1.14 1.16 1.24 1.30 1.27 1.25 1.31 1.38 1.42 1.52 1.68 1.89 2.07 2.18 2.29 2.39 2.54 2.66 2.87 3.02 3.06 2.88 2.71 2.70 2.76
0.68 0.71 0.70 0.69 0.82 0.85 0.58 0.65 0.97 1.21 1.17 1.41 1.31 1.17 1.19 1.17 1.10 1.03 1.04 1.18 1.30 1.36 1.41 1.41 1.39 1.38 1.42 1.52 1.61 1.76 1.94 2.06 2.19 2.26 2.41 2.52 2.60 2.62 2.68 2.92 2.97 2.91 2.82 2.74
0.93 0.96 1.01 0.99 1.09 0.98 0.84 0.89 1.09 1.10 1.12 1.28 1.27 1.13 1.11 1.09 1.03 1.01 1.05 1.14 1.20 1.26 1.34 1.36 1.39 1.43 1.50 1.57 1.69 1.84 1.94 2.05 2.11 2.23 2.38 2.55 2.62 2.68 2.66 2.68 2.76 2.75 2.70 2.56
1.14 0.97 1.12 1.30 1.30 1.19 1.04 0.93 0.99 1.04 1.05 1.09 1.21 1.26 1.20 1.13 1.06 1.10 1.10 1.11 1.25 1.34 1.38 1.42 1.42 1.44 1.58 1.71 1.85 1.90 1.91 2.02 2.22 2.30 2.35 2.41 2.45 2.48 2.55 2.68 2.63 2.57 2.57 2.51
1.27 1.24 1.47 1.82 1.82 1.65 1.50 1.30 1.21 1.18 1.17 1.18 1.29 1.39 1.44 1.41 1.33 1.30 1.23 1.21 1.31 1.41 1.36 1.43 1.52 1.55 1.63 1.69 1.82 1.95 2.00 2.03 2.13 2.14 2.09 2.15 2.26 2.32 2.33 2.48 2.55 2.41 2.32 2.37
1.31 1.52 1.88 2.20 2.00 1.98 1.87 1.54 1.40 1.41 1.48 1.44 1.44 1.49 1.46 1.40 1.38 1.39 1.39 1.31 1.25 1.25 1.35 1.47 1.54 1.63 1.66 1.68 1.76 1.80 1.86 1.97 2.08 2.15 2.13 2.13 2.18 2.25 2.29 2.26 2.32 2.34 2.10 2.04